Terminal Aerodrome Forecast
Issued by NWS Grand Forks, ND

Home | Current Version | Previous Version | Graphics & Text | Print | Product List | Glossary On
Versions: 1 2 3 4 5 6 7 8 9 10 11 12 13 14 15 16 17 18
000
FTUS43 KFGF 011100
TAFFAR
TAF
KFAR 011120Z 0112/0212 23010KT P6SM SCT080
      TEMPO 0116/0118 BKN080
     FM012000 30012KT P6SM BKN040
     FM020200 28008KT P6SM SCT250=

USA.gov is the U.S. government's official web portal to all federal, state and local government web resources and services.